Date,TemperatureHighF,TemperatureAvgF,TemperatureLowF,DewpointHighF,DewpointAvgF,DewpointLowF,HumidityHigh,HumidityAvg,HumidityLow,PressureMaxIn,PressureMinIn,WindSpeedMaxMPH,WindSpeedAvgMPH,GustSpeedMaxMPH,PrecipitationSumIn
2013-2-1,64.2,52.0,41.5,54.1,47.6,39.8,100,86,68,30.29,30.17,7,1,9,0.00
2013-2-2,64.5,52.7,46.0,55.7,48.8,43.3,98,87,71,30.34,30.23,6,1,8,0.00
2013-2-3,61.2,50.3,42.5,53.6,46.4,38.6,100,87,73,30.29,30.15,8,1,9,0.00
2013-2-4,63.2,52.0,41.8,57.3,48.4,38.1,100,88,71,30.24,30.09,7,1,8,0.00
2013-2-5,56.0,48.1,42.6,52.5,47.1,42.3,100,96,87,30.19,30.09,8,1,9,0.00
2013-2-6,58.3,47.8,38.3,50.2,44.2,37.8,100,88,66,30.24,30.14,8,1,11,0.00
2013-2-7,52.7,46.8,43.1,50.3,44.9,40.7,100,93,83,30.21,30.04,11,3,13,0.00
2013-2-8,54.4,45.5,36.1,47.1,38.5,29.3,100,79,52,30.06,29.94,18,3,21,0.00
2013-2-9,55.6,44.6,33.8,44.5,35.7,28.4,88,72,54,30.17,30.00,8,1,9,0.00
2013-2-10,57.4,47.0,35.2,46.5,37.7,30.8,91,72,43,30.24,30.07,14,3,15,0.00
2013-2-11,61.6,49.9,38.9,43.7,37.0,28.2,84,62,45,30.31,30.13,14,1,14,0.00
2013-2-12,60.6,48.5,39.2,48.4,41.4,34.2,92,77,59,30.45,30.31,8,1,9,0.00
2013-2-13,62.4,49.9,38.9,50.9,44.5,37.8,97,83,63,30.41,30.24,8,1,9,0.00
2013-2-14,67.4,52.6,39.7,55.5,47.4,38.1,99,84,64,30.32,30.18,7,1,9,0.00
2013-2-15,68.6,54.8,43.3,53.9,47.4,37.8,95,77,52,30.35,30.25,7,1,7,0.00
2013-2-16,66.9,55.1,45.8,52.3,45.9,37.1,87,72,55,30.31,30.06,5,1,6,0.00
2013-2-17,64.2,53.0,42.9,53.4,46.8,39.6,93,80,65,30.09,29.97,9,2,11,0.00
2013-2-18,61.9,50.8,44.1,53.5,45.8,40.8,91,83,69,30.06,29.92,18,3,21,0.00
2013-2-19,46.5,41.9,34.7,44.3,41.2,34.7,100,98,91,29.98,29.78,17,3,18,0.00
2013-2-20,56.9,42.8,30.5,46.7,38.0,30.5,100,85,57,30.07,29.87,17,2,19,0.00
2013-2-21,57.9,47.4,39.6,46.5,40.7,36.0,98,79,53,30.21,30.07,16,3,18,0.00
2013-2-22,61.4,50.2,38.0,49.0,42.5,35.1,91,76,56,30.31,30.18,10,2,11,0.00
2013-2-23,58.1,50.8,44.7,48.8,39.6,26.4,100,69,42,30.29,30.17,19,5,23,0.00
2013-2-24,62.1,48.7,34.8,41.0,35.2,26.5,84,61,42,30.30,30.20,15,2,15,0.00
2013-2-25,63.9,51.6,42.8,47.0,39.6,35.5,81,65,45,30.35,30.20,11,2,13,0.00
2013-2-26,64.2,50.2,34.2,41.0,36.1,27.9,95,62,37,30.27,30.14,19,4,21,0.00
2013-2-27,70.2,55.0,41.2,48.4,37.9,26.4,71,53,32,30.39,30.23,8,1,9,0.00
2013-2-28,69.8,58.4,47.1,51.8,45.6,38.6,83,63,47,30.48,30.38,12,2,15,0.00